Regional Weather Roundup
Issued by NWS

Home | Current Version | Previous Version | Graphics & Text | Print | Product List | Glossary Off
Versions: 1 2 3 4 5 6 7 8 9 10 11 12 13 14 15 16 17 18 19 20 21 22 23 24 25 26 27 28 29 30 31 32 33 34 35 36 37 38 39 40 41 42 43 44 45 46 47 48 49 50

000
ASUS43 KTOP 011659
RWRKS

WEATHER ROUNDUP FOR KANSAS
NATIONAL WEATHER SERVICE GOODLAND KS
1200 PM CDT SAT AUG 01 2015

NOTE:  "FAIR" INDICATES FEW OR NO CLOUDS BELOW 12,000 FEET WITH NO
SIGNIFICANT WEATHER AND/OR OBSTRUCTIONS TO VISIBILITY.

KSZ001>006-013>018-027>032-041>047-011800-
NORTHWEST KANSAS

CITY           SKY/WX    TMP DP  RH WIND       PRES   REMARKS
GOODLAND       SUNNY     85  59  41 S16G25    30.12F
HAYS           SUNNY     84  64  51 E3        30.09S
HILL CITY      MOSUNNY   85  68  56 VRB7      30.10F
RUSSELL        SUNNY     86  68  54 VRB5      30.08S
$$

KSZ061>065-074>080-084>089-011800-
SOUTHWEST KANSAS

CITY           SKY/WX    TMP DP  RH WIND       PRES   REMARKS
DODGE CITY     SUNNY     84  64  50 S10       30.10F
ELKHART          N/A     79  65  62 S9          N/A
GARDEN CITY    SUNNY     83  64  52 S12       30.10F
GREAT BEND     MOSUNNY   84  70  61 S5        30.08S
LIBERAL        MOSUNNY   84  66  54 S7        30.10F
$$

KSZ066>073-081>083-090>101-011800-
SOUTHEAST KANSAS

CITY           SKY/WX    TMP DP  RH WIND       PRES   REMARKS
CHANUTE        MOSUNNY   88  71  57 VRB5      30.08F
COFFEYVILLE    SUNNY     88  69  53 CALM      30.07F
HUTCHINSON     SUNNY     87  69  54 SE9       30.08F
MEDICINE LODGE   N/A     84  71  65 SW7       30.09F
NEWTON         MOSUNNY   86  70  58 S8        30.11S
PARSONS        SUNNY     87  73  62 VRB3      30.09F
WICHITA INTL   MOSUNNY   85  71  63 S7        30.08F
WICHITA JABRA  SUNNY     86  70  58 S5        30.08F
WINFIELD       SUNNY     86  74  67 S7        30.09F
$$

KSZ007>012-019>026-033>040-048>060-102>105-011800-
NORTHEAST KANSAS

CITY           SKY/WX    TMP DP  RH WIND       PRES   REMARKS
CONCORDIA      SUNNY     85  70  60 E7        30.08S
EMPORIA        SUNNY     87  70  56 MISG      30.07F
LAWRENCE       SUNNY     87  74  64 W6        30.06F HX  95
MANHATTAN      MOSUNNY   88  73  61 CALM      30.06F HX  95
OLATHE IND     CLOUDY    87  73  62 VRB3      30.08F
OLATHE EXE     MOSUNNY   87  72  60 W5        30.07S
SALINA         MOSUNNY   89  70  53 SE3       30.07S
TOPEKA BILLARD MOSUNNY   89  73  59 NW6       30.06F HX  97
TOPEKA FORBES  SUNNY     89  70  53 VRB5      30.07F
$$



USA.gov is the U.S. government's official web portal to all federal, state and local government web resources and services.